Regional Weather Roundup
Issued by NWS Kansas City/Pleasant Hill, MO

Home | Current Version | Previous Version | Graphics & Text | Print | Product List | Glossary Off
Versions: 1 2 3 4 5 6 7 8 9 10 11 12 13 14 15 16 17 18 19 20 21 22 23 24 25 26 27 28 29 30 31 32 33 34 35 36 37 38 39 40 41 42 43 44 45 46 47 48 49 50

000
ASUS43 KEAX 040810
RWREAX

WEATHER ROUNDUP FOR EASTERN KANSAS AND NORTHWEST MISSOURI
NATIONAL WEATHER SERVICE KANSAS CITY/PLEASANT HILL MO
300 AM CDT WED MAY 04 2016

KSZ040-057-103>105-MOZ028-029-037-043-040900-
...KANSAS CITY METROPOLITAN AREA...

CITY           SKY/WX    TMP DP  RH WIND       PRES   REMARKS
K.C. INTL      PTCLDY    54  43  66 W9        29.85F
K.C. DOWNTOWN  CLEAR     58  45  62 W10       29.85F
LEES SUMMIT    CLEAR     55  45  68 SW8       29.86F
OLATHE - IXD   CLEAR     54  45  71 SW8       29.89F
OLATHE - OJC   CLEAR     54  44  69 W7        29.88F
LAWRENCE       CLEAR     47  45  93 NW6       29.88F

$$

MOZ001>008-011>017-020>025-030>033-038>040-044>046-053-054-040900-
...NORTHERN AND CENTRAL MISSOURI...

CITY           SKY/WX    TMP DP  RH WIND       PRES   REMARKS
ST. JOSEPH     CLOUDY    59  43  55 W14       29.82F
MOSBY          MOSUNNY   55  43  62 W6        29.83F
WARRENSBURG    CLEAR     54  45  71 SW9       29.85F
WHITEMAN AFB   CLEAR     55  47  73 SW10      29.83F
CLINTON        CLEAR     55  48  76 SW9       29.87F
SEDALIA        CLEAR     56  46  69 SW13      29.84F
WARSAW         NOT AVBL
CHILLICOTHE      N/A     59  44  57 VRB6      29.79F
KIRKSVILLE     CLOUDY    59  42  53 W14G22    29.75F

$$

MOZ041-047>049-056>058-063>065-088>090-097-040900-
...EASTERN AND SOUTHERN MISSOURI...

CITY           SKY/WX    TMP DP  RH WIND       PRES   REMARKS
ST. LOUIS INTL MOCLDY    55  42  61 SW12      29.79F
SPIRIT OF STL  MOCLDY    54  43  66 SW12      29.79F
COLUMBIA       CLEAR     55  45  68 SW14      29.80F
JEFFERSON CITY CLEAR     55  44  66 CALM      29.82F
ROLLA          CLEAR     46  41  82 S12       29.83F
OSAGE BEACH    CLEAR     54  37  54 SW7       29.87F
SPRINGFIELD    PTCLDY    51  42  71 SW9       29.92F
JOPLIN         PTCLDY    56  46  69 SW13      29.95F
WEST PLAINS    CLEAR     47  39  74 W6        29.93F

$$

IAZ060-094-KSZ022-034>040-054-083-096-NEZ052-066-093-040900-
...KANSAS...SOUTHEAST NEBRASKA AND IOWA...

CITY           SKY/WX    TMP DP  RH WIND       PRES   REMARKS
TOPEKA         CLEAR     54  45  71 W6        29.89F
MANHATTAN      CLEAR     51  44  77 SW7       29.93F
EMPORIA        CLEAR     54  44  69 W6        29.94F
CHANUTE        CLEAR     54  45  71 W6        29.94F
WICHITA        CLEAR     50  43  77 W7        29.99F
OMAHA          CLEAR     51  43  74 N7        29.89S
LINCOLN        CLEAR     56  43  61 NW8       29.95R
FALLS CITY     PTCLDY    57  44  62 NW15      29.86R
LAMONI         CLEAR     53  45  74 NW12      29.79F
DES MOINES     PTCLDY    55  35  47 NW10      29.78S

$$




USA.gov is the U.S. government's official web portal to all federal, state and local government web resources and services.